Date String (YYYY-MM-DD hh:mm:ss) UTC,Instrument flags,Ambient pressure (hPa),Sample flow (lpm),Bypass flow (lpm),Sample temperature (°C),Ambient temperature (°C),ASC tube jacket temperature (°C),LED temperature (°C),Box temperature (°C),Sample RH (%),Span deviation,Mass concentration (μg/m³),Mass concentration (μg/m³),Mass concentration (μg/m³)
DateTimeUTC,F1_M11,P_M11,Q1_M11,Q2_M11,T1_M11,T2_M11,T3_M11,T4_M11,T5_M11,U1_M11,ZSPAN_M11,X0_M11,X2_M11,X1_M11
2023-02-04 08:00:00,,0824.5,4.97,0.00,23.7,22.2,00.0,32.6,25.4,05.5,0000.0,0005.11,0001.40,0000.46
2023-02-04 08:01:00,,0824.6,5.02,0.00,23.7,22.1,00.0,32.6,25.3,05.9,0000.0,0005.16,0001.38,0000.46
2023-02-04 08:02:00,,0824.7,5.02,0.00,23.7,22.1,00.0,32.6,25.3,05.3,0000.0,0005.75,0001.45,0000.46
2023-02-04 08:03:00,,0824.7,5.01,0.00,23.7,22.1,00.0,32.6,25.3,05.1,0000.0,0005.79,0001.47,0000.45
2023-02-04 08:04:00,,0824.6,4.97,0.00,23.7,22.1,00.0,32.6,25.3,04.8,0000.0,0005.88,0001.50,0000.45
2023-02-04 08:05:00,,0824.6,4.99,0.00,23.6,22.1,00.0,32.5,25.3,05.0,0000.0,0005.85,0001.47,0000.46
2023-02-04 08:06:00,,0824.7,5.02,0.00,23.6,22.1,00.0,32.5,25.3,04.7,0000.0,0005.76,0001.48,0000.46
2023-02-04 08:07:00,,0824.7,5.01,0.00,23.6,22.1,00.0,32.5,25.3,04.7,0000.0,0004.76,0001.43,0000.45
2023-02-04 08:08:00,,0824.8,4.97,0.00,23.6,22.1,00.0,32.5,25.3,04.8,0000.0,0004.60,0001.35,0000.44
2023-02-04 08:09:00,,0824.9,4.98,0.00,23.6,22.1,00.0,32.5,25.3,05.4,0000.0,0004.96,0001.34,0000.43
2023-02-04 08:10:00,,0824.7,5.04,0.00,23.6,22.2,00.0,32.5,25.3,05.7,0000.0,0003.95,0001.21,0000.42
2023-02-04 08:11:00,,0824.4,5.01,0.00,23.6,22.2,00.0,32.5,25.3,05.9,0000.0,0003.76,0001.16,0000.41
2023-02-04 08:12:00,,0824.4,4.97,0.00,23.6,22.1,00.0,32.5,25.3,04.4,0000.0,0003.78,0001.18,0000.41
2023-02-04 08:13:00,,0824.6,5.00,0.00,23.6,22.1,00.0,32.5,25.3,04.2,0000.0,0004.31,0001.11,0000.41
2023-02-04 08:14:00,,0824.5,5.04,0.00,23.6,22.1,00.0,32.5,25.3,04.0,0000.0,0005.24,0001.09,0000.42
2023-02-04 08:15:00,,0824.5,5.01,0.00,23.6,22.1,00.0,32.5,25.3,03.9,0000.0,0005.51,0001.02,0000.43
2023-02-04 08:16:00,,0824.5,4.96,0.00,23.6,22.1,00.0,32.5,25.3,04.1,0000.0,0005.55,0001.02,0000.43
2023-02-04 08:17:00,,0824.5,5.00,0.00,23.6,22.1,00.0,32.5,25.3,04.1,0000.0,0005.53,0001.04,0000.44
2023-02-04 08:18:00,,0824.6,5.02,0.00,23.6,22.1,00.0,32.5,25.3,04.1,0000.0,0005.82,0001.06,0000.45
2023-02-04 08:19:00,,0824.5,5.04,0.00,23.6,22.0,00.0,32.5,25.2,04.4,0000.0,0006.09,0001.11,0000.47
2023-02-04 08:20:00,,0824.4,4.96,0.00,23.6,22.0,00.0,32.5,25.2,04.3,0000.0,0006.00,0001.12,0000.48
2023-02-04 08:21:00,,0824.5,5.00,0.00,23.5,22.0,00.0,32.4,25.2,04.0,0000.0,0006.10,0001.19,0000.50
2023-02-04 08:22:00,,0824.5,5.03,0.00,23.5,21.9,00.0,32.4,25.2,04.4,0000.0,0006.49,0001.27,0000.51
2023-02-04 08:23:00,,0824.4,5.02,0.00,23.5,21.9,00.0,32.4,25.1,05.3,0000.0,0006.89,0001.30,0000.52
2023-02-04 08:24:00,,0824.4,4.97,0.00,23.5,21.9,00.0,32.4,25.1,04.7,0000.0,0006.50,0001.39,0000.53
2023-02-04 08:25:00,,0824.4,5.00,0.00,23.5,21.9,00.0,32.4,25.1,04.6,0000.0,0005.98,0001.52,0000.55
2023-02-04 08:26:00,,0824.4,5.03,0.00,23.5,21.9,00.0,32.4,25.1,05.1,0000.0,0006.26,0001.64,0000.57
2023-02-04 08:27:00,,0824.4,5.01,0.00,23.5,21.9,00.0,32.4,25.1,05.3,0000.0,0006.95,0001.73,0000.59
2023-02-04 08:28:00,,0824.4,4.98,0.00,23.5,21.9,00.0,32.4,25.1,05.0,0000.0,0007.68,0001.79,0000.58
2023-02-04 08:29:00,,0824.3,4.97,0.00,23.5,22.0,00.0,32.4,25.2,05.1,0000.0,0007.63,0001.81,0000.58
2023-02-04 08:30:00,,0824.3,5.03,0.00,23.5,22.0,00.0,32.4,25.2,04.9,0000.0,0007.61,0001.84,0000.58
2023-02-04 08:31:00,,0824.3,5.00,0.00,23.5,22.0,00.0,32.4,25.1,04.5,0000.0,0007.91,0001.89,0000.58
2023-02-04 08:32:00,,0824.3,4.98,0.00,23.5,22.0,00.0,32.4,25.1,05.0,0000.0,0008.15,0001.92,0000.58
2023-02-04 08:33:00,,0824.3,4.95,0.00,23.5,22.0,00.0,32.4,25.1,04.9,0000.0,0008.04,0001.90,0000.58
2023-02-04 08:34:00,,0824.3,5.01,0.00,23.5,22.0,00.0,32.4,25.2,04.9,0000.0,0008.17,0001.90,0000.60
2023-02-04 08:35:00,,0824.4,5.03,0.00,23.5,22.0,00.0,32.4,25.2,05.0,0000.0,0008.06,0001.87,0000.60
2023-02-04 08:36:00,,0824.4,5.01,0.00,23.5,22.0,00.0,32.4,25.1,04.5,0000.0,0007.75,0001.77,0000.58
2023-02-04 08:37:00,,0824.4,4.97,0.00,23.5,22.0,00.0,32.4,25.1,04.8,0000.0,0007.38,0001.73,0000.57
2023-02-04 08:38:00,,0824.4,4.99,0.00,23.5,22.0,00.0,32.4,25.2,04.4,0000.0,0006.79,0001.65,0000.56
2023-02-04 08:39:00,,0824.4,5.03,0.00,23.4,21.9,00.0,32.4,25.2,04.2,0000.0,0005.81,0001.56,0000.55
2023-02-04 08:40:00,,0824.4,5.03,0.00,23.4,21.8,00.0,32.3,25.1,04.3,0000.0,0005.59,0001.50,0000.54
2023-02-04 08:41:00,,0824.4,4.99,0.00,23.4,21.7,00.0,32.3,25.1,04.2,0000.0,0005.42,0001.47,0000.53
2023-02-04 08:42:00,,0824.3,4.96,0.00,23.4,21.6,00.0,32.3,25.1,04.2,0000.0,0004.88,0001.44,0000.52
2023-02-04 08:43:00,,0824.3,5.03,0.00,23.3,21.6,00.0,32.3,25.1,03.9,0000.0,0004.35,0001.38,0000.51
2023-02-04 08:44:00,,0824.4,5.01,0.00,23.3,21.6,00.0,32.3,25.1,03.8,0000.0,0004.37,0001.38,0000.51
2023-02-04 08:45:00,,0824.4,4.99,0.00,23.3,21.6,00.0,32.3,25.0,04.0,0000.0,0004.19,0001.37,0000.50
2023-02-04 08:46:00,,0824.3,4.97,0.00,23.3,21.7,00.0,32.3,25.0,04.3,0000.0,0004.64,0001.37,0000.49
2023-02-04 08:47:00,,0824.3,5.00,0.00,23.3,21.7,00.0,32.3,25.0,04.7,0000.0,0005.84,0001.45,0000.49
2023-02-04 08:48:00,,0824.4,5.04,0.00,23.3,21.8,00.0,32.3,25.0,04.1,0000.0,0006.24,0001.45,0000.50
2023-02-04 08:49:00,,0824.5,5.02,0.00,23.3,21.8,00.0,32.2,25.0,04.0,0000.0,0006.15,0001.47,0000.50
2023-02-04 08:50:00,,0824.4,4.97,0.00,23.3,21.8,00.0,32.2,25.0,04.0,0000.0,0006.15,0001.53,0000.52
2023-02-04 08:51:00,,0824.4,5.01,0.00,23.3,21.8,00.0,32.2,25.0,04.1,0000.0,0006.25,0001.61,0000.54
2023-02-04 08:52:00,,0824.4,5.02,0.00,23.3,21.8,00.0,32.2,25.0,04.3,0000.0,0006.44,0001.68,0000.56
2023-02-04 08:53:00,,0824.3,5.01,0.00,23.3,21.8,00.0,32.2,25.0,04.4,0000.0,0006.53,0001.70,0000.57
2023-02-04 08:54:00,,0824.4,4.96,0.00,23.3,21.9,00.0,32.2,25.0,04.2,0000.0,0006.60,0001.72,0000.58
2023-02-04 08:55:00,,0824.4,5.03,0.00,23.3,21.9,00.0,32.2,25.0,04.1,0000.0,0006.67,0001.76,0000.60
2023-02-04 08:56:00,,0824.3,5.01,0.00,23.3,21.9,00.0,32.2,25.0,04.5,0000.0,0006.23,0001.75,0000.61
2023-02-04 08:57:00,,0824.3,4.96,0.00,23.3,21.8,00.0,32.2,25.0,04.5,0000.0,0005.68,0001.77,0000.61
2023-02-04 08:58:00,,0824.3,5.02,0.00,23.3,21.8,00.0,32.2,25.0,05.0,0000.0,0004.63,0001.74,0000.61
2023-02-04 08:59:00,,0824.3,5.02,0.00,23.3,21.8,00.0,32.2,25.1,04.9,0000.0,0004.20,0001.70,0000.59
